McCook, NE

6:36 AM CDT on August 21, 2017 (GMT -0500)
McCook Municipal

Weather History for KMCK - May, 2012

Change the Weather History Date:

Wednesday, May 23, 2012

  Actual Average Record
Temperature  
Mean Temperature 69 °F 62 °F  
Max Temperature 83 °F 75 °F 97 °F (1950)
Min Temperature 55 °F 48 °F 34 °F (1924)
Cooling Degree Days 6    
Growing Degree Days 20 (Base 50)    
Moisture  
Dew Point 51 °F    
Average Humidity 51    
Maximum Humidity 81    
Minimum Humidity 28    
Precipitation  
Precipitation 0.14 in 0.11 in 5.13 in (2008)
Month to date precipitation 0.55 2.23  
Year to date precipitation 3.62 7.03  
Sea Level Pressure  
Sea Level Pressure 29.42 in    
Wind  
Wind Speed 16 mph (NE)    
Max Wind Speed 25 mph    
Max Gust Speed 41 mph    
Visibility 10 miles    
Events Rain , Thunderstorm    
T = Trace of Precipitation, MM = Missing Value Source: NWS Daily Summary

Daily Weather History Graph

Daily Weather History Graph

Search for Another Location

Airport or City:

Trip Planner

Search our weather history database for the weather conditions in past years. The results will help you decide how hot, cold, wet, or windy it might be!

Date:

Astronomy

May. 23, 2012 Rise Set
Actual Time 6:19 AM CDT 8:59 PM CDT
Civil Twilight 5:48 AM CDT 9:30 PM CDT
Nautical Twilight 5:08 AM CDT 10:10 PM CDT
Astronomical Twilight 4:24 AM CDT 10:55 PM CDT
Moon 8:24 AM CDT (5/23) 11:21 PM CDT (5/23)
Length of Visible Light 15h 42m
Length of Day
14h 39m
Waxing Crescent, 7% of the Moon is Illuminated
May 23
Waxing Crescent
May 28
First Quarter
Jun 4
Full
Jun 11
Last Quarter
Jun 19
New

Hourly Weather History & Observations

Time (CDT) Temp. Dew Point Humidity Pressure Visibility Wind Dir Wind Speed Gust Speed Precip Events Conditions
12:53 AM 75.9 °F 55.9 °F 50% 29.40 in 10.0 mi South 20.7 mph 31.1 mph N/A   Clear
1:53 AM 73.9 °F 55.0 °F 52% 29.37 in 10.0 mi South 19.6 mph 32.2 mph N/A   Clear
2:53 AM 73.4 °F 53.6 °F 50% 29.45 in 10.0 mi South 18.4 mph 31.1 mph N/A   Clear
3:53 AM 71.1 °F 54.0 °F 55% 29.33 in 10.0 mi South 13.8 mph 25.3 mph N/A   Clear
4:53 AM 72.0 °F 53.1 °F 51% 29.36 in 10.0 mi South 9.2 mph - N/A   Clear
5:53 AM 66.9 °F 53.1 °F 61% 29.33 in 10.0 mi SE 6.9 mph - N/A   Clear
6:53 AM 64.0 °F 54.0 °F 70% 29.35 in 10.0 mi ENE 4.6 mph - N/A   Clear
7:53 AM 66.0 °F 55.0 °F 68% 29.36 in 10.0 mi NE 4.6 mph - N/A   Clear
8:53 AM 69.1 °F 55.9 °F 63% 29.37 in 10.0 mi ENE 6.9 mph - N/A   Clear
9:53 AM 72.0 °F 55.9 °F 57% 29.38 in 10.0 mi North 11.5 mph - N/A   Clear
10:53 AM 72.0 °F 57.0 °F 59% 29.42 in 10.0 mi North 17.3 mph - N/A   Clear
11:53 AM 75.0 °F 55.9 °F 51% 29.44 in 10.0 mi North 20.7 mph 32.2 mph N/A   Partly Cloudy
12:53 PM 77.0 °F 55.0 °F 47% 29.44 in 10.0 mi North 25.3 mph 33.4 mph N/A   Scattered Clouds
1:53 PM 77.0 °F 48.9 °F 37% 29.44 in 10.0 mi North 23.0 mph 33.4 mph N/A   Mostly Cloudy
2:53 PM 82.0 °F 48.9 °F 31% 29.42 in 10.0 mi NNE 21.9 mph 41.4 mph N/A   Scattered Clouds
3:53 PM 81.0 °F 46.0 °F 29% 29.41 in 10.0 mi NNE 21.9 mph 34.5 mph N/A   Scattered Clouds
4:53 PM 81.0 °F 45.0 °F 28% 29.40 in 10.0 mi NNE 25.3 mph 31.1 mph N/A   Clear
5:53 PM 79.0 °F 48.9 °F 35% 29.42 in 10.0 mi North 17.3 mph 28.8 mph N/A   Partly Cloudy
6:53 PM 77.0 °F 46.0 °F 33% 29.44 in 10.0 mi NNE 20.7 mph 26.5 mph N/A   Clear
7:53 PM 72.0 °F 46.0 °F 40% 29.45 in 10.0 mi NNE 24.2 mph 31.1 mph N/A   Clear
8:53 PM 68.0 °F 45.0 °F 43% 29.47 in 10.0 mi NNE 16.1 mph - N/A   Clear
9:53 PM 64.9 °F 46.0 °F 50% 29.48 in 10.0 mi NNE 11.5 mph - N/A   Clear
10:53 PM 64.0 °F 46.0 °F 52% 29.44 in 10.0 mi NE 17.3 mph 20.7 mph N/A   Mostly Cloudy
11:06 PM 62.6 °F 46.4 °F 55% 29.52 in 10.0 mi ENE 11.5 mph 16.1 mph N/A Thunderstorm Thunderstorm
11:26 PM 60.8 °F 48.2 °F 63% 29.51 in 10.0 mi ENE 12.7 mph - 0.03 in Thunderstorm Mostly Cloudy
11:34 PM 59.0 °F 51.8 °F 77% 29.57 in 10.0 mi NW 13.8 mph - 0.03 in Thunderstorm Mostly Cloudy
11:53 PM 57.9 °F 52.0 °F 81% 29.48 in 3.0 mi NNE 15.0 mph - 0.10 in Rain , Thunderstorm Heavy Thunderstorms and Rain